Year,Month,Day,Hour,Minute,Value (Times are PST for temperature in C)
2014,08,03,00,00,16.30
2014,08,03,00,01,16.30
2014,08,03,00,02,16.30
2014,08,03,00,03,16.20
2014,08,03,00,04,16.20
2014,08,03,00,05,16.20
2014,08,03,00,06,16.20
2014,08,03,00,07,16.20
2014,08,03,00,08,16.10
2014,08,03,00,09,16.10
2014,08,03,00,10,16.10
2014,08,03,00,11,16.00
2014,08,03,00,12,16.00
2014,08,03,00,13,15.90
2014,08,03,00,14,15.90
2014,08,03,00,15,15.90
2014,08,03,00,16,15.80
2014,08,03,00,17,15.80
2014,08,03,00,18,15.80
2014,08,03,00,19,15.70
2014,08,03,00,20,15.70
2014,08,03,00,21,15.60
2014,08,03,00,22,15.60
2014,08,03,00,23,15.50
2014,08,03,00,24,15.50
2014,08,03,00,25,15.40
2014,08,03,00,26,15.40
2014,08,03,00,27,15.30
2014,08,03,00,28,15.30
2014,08,03,00,29,15.20
2014,08,03,00,30,15.10
2014,08,03,00,31,15.10
2014,08,03,00,32,15.10
2014,08,03,00,33,15.00
2014,08,03,00,34,14.90
2014,08,03,00,35,14.90
2014,08,03,00,36,14.90
2014,08,03,00,37,14.90
2014,08,03,00,38,14.90
2014,08,03,00,39,14.90
2014,08,03,00,40,14.80
2014,08,03,00,41,14.80
2014,08,03,00,42,14.80
2014,08,03,00,43,14.80
2014,08,03,00,44,14.80
2014,08,03,00,45,14.80
2014,08,03,00,46,14.90
2014,08,03,00,47,14.90
2014,08,03,00,48,14.90
2014,08,03,00,49,14.90
2014,08,03,00,50,15.00
2014,08,03,00,51,15.00
2014,08,03,00,52,15.00
2014,08,03,00,53,15.10
2014,08,03,00,54,15.10
2014,08,03,00,55,15.10
2014,08,03,00,56,15.10
2014,08,03,00,57,15.10
2014,08,03,00,58,15.10
2014,08,03,00,59,15.10
2014,08,03,01,00,15.10
2014,08,03,01,01,15.10
2014,08,03,01,02,15.20
2014,08,03,01,03,15.20
2014,08,03,01,04,15.20
2014,08,03,01,05,15.20
2014,08,03,01,06,15.20
2014,08,03,01,07,15.20
2014,08,03,01,08,15.20
2014,08,03,01,09,15.20
2014,08,03,01,10,15.20
2014,08,03,01,11,15.20
2014,08,03,01,12,15.20
2014,08,03,01,13,15.20
2014,08,03,01,14,15.20
2014,08,03,01,15,15.20
2014,08,03,01,16,15.20
2014,08,03,01,17,15.20
2014,08,03,01,18,15.20
2014,08,03,01,19,15.10
2014,08,03,01,20,15.10
2014,08,03,01,21,15.10
2014,08,03,01,22,15.10
2014,08,03,01,23,15.10
2014,08,03,01,24,15.10
2014,08,03,01,25,15.10
2014,08,03,01,26,15.10
2014,08,03,01,27,15.10
2014,08,03,01,28,15.10
2014,08,03,01,29,15.10
2014,08,03,01,30,15.10
2014,08,03,01,31,15.00
2014,08,03,01,32,15.00
2014,08,03,01,33,15.00
2014,08,03,01,34,15.00
2014,08,03,01,35,15.00
2014,08,03,01,36,15.00
2014,08,03,01,37,15.00
2014,08,03,01,38,15.00
2014,08,03,01,39,15.00
2014,08,03,01,40,15.00
2014,08,03,01,41,14.90
2014,08,03,01,42,14.90
2014,08,03,01,43,14.90
2014,08,03,01,44,14.90
2014,08,03,01,45,14.90
2014,08,03,01,46,14.90
2014,08,03,01,47,14.90
2014,08,03,01,48,14.80
2014,08,03,01,49,14.80
2014,08,03,01,50,14.80
2014,08,03,01,51,14.80
2014,08,03,01,52,14.80
2014,08,03,01,53,14.80
2014,08,03,01,54,14.80
2014,08,03,01,55,14.80
2014,08,03,01,56,14.80
2014,08,03,01,57,14.80
2014,08,03,01,58,14.70
2014,08,03,01,59,14.70
2014,08,03,02,00,14.70
2014,08,03,02,01,14.70
2014,08,03,02,02,14.70
2014,08,03,02,03,14.70
2014,08,03,02,04,14.70
2014,08,03,02,05,14.70
2014,08,03,02,06,14.70
2014,08,03,02,07,14.70
2014,08,03,02,08,14.70
2014,08,03,02,09,14.70
2014,08,03,02,10,14.70
2014,08,03,02,11,14.70
2014,08,03,02,12,14.70
2014,08,03,02,13,14.70
2014,08,03,02,14,14.70
2014,08,03,02,15,14.70
2014,08,03,02,16,14.70
2014,08,03,02,17,14.70
2014,08,03,02,18,14.70
2014,08,03,02,19,14.70
2014,08,03,02,20,14.70
2014,08,03,02,21,14.60
2014,08,03,02,22,14.60
2014,08,03,02,23,14.60
2014,08,03,02,24,14.60
2014,08,03,02,25,14.60
2014,08,03,02,26,14.60
2014,08,03,02,27,14.60
2014,08,03,02,28,14.60
2014,08,03,02,29,14.60
2014,08,03,02,30,14.60
2014,08,03,02,31,14.60
2014,08,03,02,32,14.60
2014,08,03,02,33,14.60
2014,08,03,02,34,14.50
2014,08,03,02,35,14.50
2014,08,03,02,36,14.50
2014,08,03,02,37,14.50
2014,08,03,02,38,14.40
2014,08,03,02,39,14.40
2014,08,03,02,40,14.40
2014,08,03,02,41,14.40
2014,08,03,02,42,14.40
2014,08,03,02,43,14.40
2014,08,03,02,44,14.40
2014,08,03,02,45,14.40
2014,08,03,02,46,14.40
2014,08,03,02,47,14.30
2014,08,03,02,48,14.30
2014,08,03,02,49,14.30
2014,08,03,02,50,14.30
2014,08,03,02,51,14.30
2014,08,03,02,52,14.30
2014,08,03,02,53,14.30
2014,08,03,02,54,14.20
2014,08,03,02,55,14.20
2014,08,03,02,56,14.20
2014,08,03,02,57,14.20
2014,08,03,02,58,14.20
2014,08,03,02,59,14.10
2014,08,03,03,00,14.10
2014,08,03,03,01,14.10
2014,08,03,03,02,14.10
2014,08,03,03,03,14.10
2014,08,03,03,04,14.00
2014,08,03,03,05,14.00
2014,08,03,03,06,14.00
2014,08,03,03,07,13.90
2014,08,03,03,08,13.90
2014,08,03,03,09,13.90
2014,08,03,03,10,13.90
2014,08,03,03,11,13.80
2014,08,03,03,12,13.80
2014,08,03,03,13,13.80
2014,08,03,03,14,13.80
2014,08,03,03,15,13.80
2014,08,03,03,16,13.70
2014,08,03,03,17,13.70
2014,08,03,03,18,13.70
2014,08,03,03,19,13.70
2014,08,03,03,20,13.70
2014,08,03,03,21,13.70
2014,08,03,03,22,13.60
2014,08,03,03,23,13.60
2014,08,03,03,24,13.60
2014,08,03,03,25,13.60
2014,08,03,03,26,13.60
2014,08,03,03,27,13.60
2014,08,03,03,28,13.60
2014,08,03,03,29,13.50
2014,08,03,03,30,13.50
2014,08,03,03,31,13.50
2014,08,03,03,32,13.50
2014,08,03,03,33,13.50
2014,08,03,03,34,13.50
2014,08,03,03,35,13.40
2014,08,03,03,36,13.40
2014,08,03,03,37,13.40
2014,08,03,03,38,13.40
2014,08,03,03,39,13.40
2014,08,03,03,40,13.40
2014,08,03,03,41,13.40
2014,08,03,03,42,13.40
2014,08,03,03,43,13.40
2014,08,03,03,44,13.40
2014,08,03,03,45,13.30
2014,08,03,03,46,13.30
2014,08,03,03,47,13.30
2014,08,03,03,48,13.30
2014,08,03,03,49,13.30
2014,08,03,03,50,13.30
2014,08,03,03,51,13.30
2014,08,03,03,52,13.30
2014,08,03,03,53,13.30
2014,08,03,03,54,13.30
2014,08,03,03,55,13.30
2014,08,03,03,56,13.30
2014,08,03,03,57,13.20
2014,08,03,03,58,13.20
2014,08,03,03,59,13.20
2014,08,03,04,00,13.20
2014,08,03,04,01,13.20
2014,08,03,04,02,13.20
2014,08,03,04,03,13.20
2014,08,03,04,04,13.20
2014,08,03,04,05,13.20
2014,08,03,04,06,13.20
2014,08,03,04,07,13.20
2014,08,03,04,08,13.20
2014,08,03,04,09,13.10
2014,08,03,04,10,13.20
2014,08,03,04,11,13.20
2014,08,03,04,12,13.20
2014,08,03,04,13,13.20
2014,08,03,04,14,13.10
2014,08,03,04,15,13.10
2014,08,03,04,16,13.10
2014,08,03,04,17,13.10
2014,08,03,04,18,13.10
2014,08,03,04,19,13.10
2014,08,03,04,20,13.10
2014,08,03,04,21,13.20
2014,08,03,04,22,13.20
2014,08,03,04,23,13.20
2014,08,03,04,24,13.20
2014,08,03,04,25,13.20
2014,08,03,04,26,13.20
2014,08,03,04,27,13.20
2014,08,03,04,28,13.20
2014,08,03,04,29,13.20
2014,08,03,04,30,13.20
2014,08,03,04,31,13.20
2014,08,03,04,32,13.20
2014,08,03,04,33,13.20
2014,08,03,04,34,13.20
2014,08,03,04,35,13.20
2014,08,03,04,36,13.30
2014,08,03,04,37,13.30
2014,08,03,04,38,13.30
2014,08,03,04,39,13.30
2014,08,03,04,40,13.30
2014,08,03,04,41,13.30
2014,08,03,04,42,13.30
2014,08,03,04,43,13.30
2014,08,03,04,44,13.30
2014,08,03,04,45,13.30
2014,08,03,04,46,13.40
2014,08,03,04,47,13.40
2014,08,03,04,48,13.40
2014,08,03,04,49,13.40
2014,08,03,04,50,13.40
2014,08,03,04,51,13.40
2014,08,03,04,52,13.40
2014,08,03,04,53,13.40
2014,08,03,04,54,13.40
2014,08,03,04,55,13.40
2014,08,03,04,56,13.40
2014,08,03,04,57,13.40
2014,08,03,04,58,13.40
2014,08,03,04,59,13.40
2014,08,03,05,00,13.40
2014,08,03,05,01,13.40
2014,08,03,05,02,13.40
2014,08,03,05,03,13.40
2014,08,03,05,04,13.40
2014,08,03,05,05,13.40
2014,08,03,05,06,13.40
2014,08,03,05,07,13.40
2014,08,03,05,08,13.40
2014,08,03,05,09,13.30
2014,08,03,05,10,13.30
2014,08,03,05,11,13.30
2014,08,03,05,12,13.30
2014,08,03,05,13,13.30
2014,08,03,05,14,13.30
2014,08,03,05,15,13.30
2014,08,03,05,16,13.30
2014,08,03,05,17,13.30
2014,08,03,05,18,13.30
2014,08,03,05,19,13.30
2014,08,03,05,20,13.30
2014,08,03,05,21,13.30
2014,08,03,05,22,13.30
2014,08,03,05,23,13.30
2014,08,03,05,24,13.30
2014,08,03,05,25,13.30
2014,08,03,05,26,13.40
2014,08,03,05,27,13.40
2014,08,03,05,28,13.40
2014,08,03,05,29,13.40
2014,08,03,05,30,13.40
2014,08,03,05,31,13.40
2014,08,03,05,32,13.50
2014,08,03,05,33,13.50
2014,08,03,05,34,13.60
2014,08,03,05,35,13.60
2014,08,03,05,36,13.60
2014,08,03,05,37,13.60
2014,08,03,05,38,13.70
2014,08,03,05,39,13.70
2014,08,03,05,40,13.70
2014,08,03,05,41,13.80
2014,08,03,05,42,13.80
2014,08,03,05,43,13.80
2014,08,03,05,44,13.80
2014,08,03,05,45,13.80
2014,08,03,05,46,13.80
2014,08,03,05,47,13.70
2014,08,03,05,48,13.70
2014,08,03,05,49,13.70
2014,08,03,05,50,13.70
2014,08,03,05,51,13.70
2014,08,03,05,52,13.70
2014,08,03,05,53,13.70
2014,08,03,05,54,13.70
2014,08,03,05,55,13.70
2014,08,03,05,56,13.60
2014,08,03,05,57,13.60
2014,08,03,05,58,13.60
2014,08,03,05,59,13.60
2014,08,03,06,00,13.60
2014,08,03,06,01,13.60
2014,08,03,06,02,13.70
2014,08,03,06,03,13.70
2014,08,03,06,04,13.60
2014,08,03,06,05,13.60
2014,08,03,06,06,13.60
2014,08,03,06,07,13.60
2014,08,03,06,08,13.60
2014,08,03,06,09,13.60
2014,08,03,06,10,13.60
2014,08,03,06,11,13.60
2014,08,03,06,12,13.60
2014,08,03,06,13,13.60
2014,08,03,06,14,13.60
2014,08,03,06,15,13.60
2014,08,03,06,16,13.60
2014,08,03,06,17,13.60
2014,08,03,06,18,13.60
2014,08,03,06,19,13.60
2014,08,03,06,20,13.60
2014,08,03,06,21,13.70
2014,08,03,06,22,13.70
2014,08,03,06,23,13.70
2014,08,03,06,24,13.70
2014,08,03,06,25,13.70
2014,08,03,06,26,13.80
2014,08,03,06,27,13.80
2014,08,03,06,28,13.90
2014,08,03,06,29,14.00
2014,08,03,06,30,14.00
2014,08,03,06,31,14.10
2014,08,03,06,32,14.10
2014,08,03,06,33,14.20
2014,08,03,06,34,14.20
2014,08,03,06,35,14.20
2014,08,03,06,36,14.20
2014,08,03,06,37,14.20
2014,08,03,06,38,14.20
2014,08,03,06,39,14.20
2014,08,03,06,40,14.20
2014,08,03,06,41,14.20
2014,08,03,06,42,14.20
2014,08,03,06,43,14.10
2014,08,03,06,44,14.10
2014,08,03,06,45,14.10
2014,08,03,06,46,14.10
2014,08,03,06,47,14.00
2014,08,03,06,48,14.00
2014,08,03,06,49,14.00
2014,08,03,06,50,14.00
2014,08,03,06,51,14.00
2014,08,03,06,52,14.00
2014,08,03,06,53,14.00
2014,08,03,06,54,14.00
2014,08,03,06,55,14.10
2014,08,03,06,56,14.10
2014,08,03,06,57,14.10
2014,08,03,06,58,14.10
2014,08,03,06,59,14.10
2014,08,03,07,00,14.10
2014,08,03,07,01,14.10
2014,08,03,07,02,14.10
2014,08,03,07,03,14.10
2014,08,03,07,04,14.10
2014,08,03,07,05,14.10
2014,08,03,07,06,14.10
2014,08,03,07,07,14.10
2014,08,03,07,08,14.10
2014,08,03,07,09,14.10
2014,08,03,07,10,14.20
2014,08,03,07,11,14.20
2014,08,03,07,12,14.20
2014,08,03,07,13,14.20
2014,08,03,07,14,14.20
2014,08,03,07,15,14.30
2014,08,03,07,16,14.30
2014,08,03,07,17,14.30
2014,08,03,07,18,14.40
2014,08,03,07,19,14.40
2014,08,03,07,20,14.50
2014,08,03,07,21,14.50
2014,08,03,07,22,14.60
2014,08,03,07,23,14.60
2014,08,03,07,24,14.70
2014,08,03,07,25,14.70
2014,08,03,07,26,14.80
2014,08,03,07,27,14.90
2014,08,03,07,28,14.90
2014,08,03,07,29,15.00
2014,08,03,07,30,15.10
2014,08,03,07,31,15.10
2014,08,03,07,32,15.20
2014,08,03,07,33,15.30
2014,08,03,07,34,15.30
2014,08,03,07,35,15.40
2014,08,03,07,36,15.50
2014,08,03,07,37,15.60
2014,08,03,07,38,15.60
2014,08,03,07,39,15.70
2014,08,03,07,40,15.80
2014,08,03,07,41,15.80
2014,08,03,07,42,15.90
2014,08,03,07,43,16.00
2014,08,03,07,44,16.10
2014,08,03,07,45,16.20
2014,08,03,07,46,16.30
2014,08,03,07,47,16.30
2014,08,03,07,48,16.40
2014,08,03,07,49,16.40
2014,08,03,07,50,16.50
2014,08,03,07,51,16.60
2014,08,03,07,52,16.60
2014,08,03,07,53,16.70
2014,08,03,07,54,16.70
2014,08,03,07,55,16.70
2014,08,03,07,56,16.80
2014,08,03,07,57,16.90
2014,08,03,07,58,16.90
2014,08,03,07,59,17.00
2014,08,03,08,00,17.10
2014,08,03,08,01,17.20
2014,08,03,08,02,17.20
2014,08,03,08,03,17.30
2014,08,03,08,04,17.30
2014,08,03,08,05,17.40
2014,08,03,08,06,17.50
2014,08,03,08,07,17.60
2014,08,03,08,08,17.70
2014,08,03,08,09,17.80
2014,08,03,08,10,17.80
2014,08,03,08,11,17.90
2014,08,03,08,12,18.00
2014,08,03,08,13,18.10
2014,08,03,08,14,18.10
2014,08,03,08,15,18.20
2014,08,03,08,16,18.20
2014,08,03,08,17,18.30
2014,08,03,08,18,18.40
2014,08,03,08,19,18.40
2014,08,03,08,20,18.50
2014,08,03,08,21,18.60
2014,08,03,08,22,18.70
2014,08,03,08,23,18.80
2014,08,03,08,24,18.80
2014,08,03,08,25,18.90
2014,08,03,08,26,19.00
2014,08,03,08,27,19.00
2014,08,03,08,28,19.10
2014,08,03,08,29,19.10
2014,08,03,08,30,19.10
2014,08,03,08,31,19.20
2014,08,03,08,32,19.20
2014,08,03,08,33,19.30
2014,08,03,08,34,19.30
2014,08,03,08,35,19.40
2014,08,03,08,36,19.50
2014,08,03,08,37,19.60
2014,08,03,08,38,19.70
2014,08,03,08,39,19.80
2014,08,03,08,40,19.90
2014,08,03,08,41,20.00
2014,08,03,08,42,20.00
2014,08,03,08,43,20.10
2014,08,03,08,44,20.20
2014,08,03,08,45,20.20
2014,08,03,08,46,20.30
2014,08,03,08,47,20.40
2014,08,03,08,48,20.50
2014,08,03,08,49,20.60
2014,08,03,08,50,20.60
2014,08,03,08,51,20.70
2014,08,03,08,52,20.80
2014,08,03,08,53,20.80
2014,08,03,08,54,20.80
2014,08,03,08,55,20.90
2014,08,03,08,56,20.90
2014,08,03,08,57,21.00
2014,08,03,08,58,21.00
2014,08,03,08,59,21.10
2014,08,03,09,00,21.10
2014,08,03,09,01,21.20
2014,08,03,09,02,21.30
2014,08,03,09,03,21.30
2014,08,03,09,04,21.30
2014,08,03,09,05,21.30
2014,08,03,09,06,21.30
2014,08,03,09,07,21.30
2014,08,03,09,08,21.30
2014,08,03,09,09,21.30
2014,08,03,09,10,21.30
2014,08,03,09,11,21.40
2014,08,03,09,12,21.40
2014,08,03,09,13,21.50
2014,08,03,09,14,21.50
2014,08,03,09,15,21.50
2014,08,03,09,16,21.40
2014,08,03,09,17,21.40
2014,08,03,09,18,21.30
2014,08,03,09,19,21.20
2014,08,03,09,20,21.10
2014,08,03,09,21,21.10
2014,08,03,09,22,21.10
2014,08,03,09,23,21.10
2014,08,03,09,24,21.10
2014,08,03,09,25,21.20
2014,08,03,09,26,21.20
2014,08,03,09,27,21.30
2014,08,03,09,28,21.30
2014,08,03,09,29,21.30
2014,08,03,09,30,21.30
2014,08,03,09,31,21.30
2014,08,03,09,32,21.30
2014,08,03,09,33,21.30
2014,08,03,09,34,21.30
2014,08,03,09,35,21.40
2014,08,03,09,36,21.40
2014,08,03,09,37,21.40
2014,08,03,09,38,21.40
2014,08,03,09,39,21.40
2014,08,03,09,40,21.40
2014,08,03,09,41,21.50
2014,08,03,09,42,21.50
2014,08,03,09,43,21.50
2014,08,03,09,44,21.50
2014,08,03,09,45,21.50
2014,08,03,09,46,21.50
2014,08,03,09,47,21.50
2014,08,03,09,48,21.50
2014,08,03,09,49,21.60
2014,08,03,09,50,21.60
2014,08,03,09,51,21.70
2014,08,03,09,52,21.70
2014,08,03,09,53,21.80
2014,08,03,09,54,21.80
2014,08,03,09,55,21.80
2014,08,03,09,56,21.80
2014,08,03,09,57,21.90
2014,08,03,09,58,21.90
2014,08,03,09,59,21.90
2014,08,03,10,00,21.90
2014,08,03,10,01,22.00
2014,08,03,10,02,22.10
2014,08,03,10,03,22.10
2014,08,03,10,04,22.00
2014,08,03,10,05,22.00
2014,08,03,10,06,22.00
2014,08,03,10,07,22.00
2014,08,03,10,08,22.00
2014,08,03,10,09,22.00
2014,08,03,10,10,22.00
2014,08,03,10,11,22.00
2014,08,03,10,12,21.90
2014,08,03,10,13,21.90
2014,08,03,10,14,21.90
2014,08,03,10,15,21.90
2014,08,03,10,16,21.90
2014,08,03,10,17,22.00
2014,08,03,10,18,22.00
2014,08,03,10,19,22.00
2014,08,03,10,20,22.00
2014,08,03,10,21,21.90
2014,08,03,10,22,21.90
2014,08,03,10,23,22.00
2014,08,03,10,24,22.00
2014,08,03,10,25,22.00
2014,08,03,10,26,22.00
2014,08,03,10,27,22.00
2014,08,03,10,28,22.00
2014,08,03,10,29,22.10
2014,08,03,10,30,22.10
2014,08,03,10,31,22.20
2014,08,03,10,32,22.20
2014,08,03,10,33,22.30
2014,08,03,10,34,22.30
2014,08,03,10,35,22.30
2014,08,03,10,36,22.20
2014,08,03,10,37,22.20
2014,08,03,10,38,22.20
2014,08,03,10,39,22.20
2014,08,03,10,40,22.20
2014,08,03,10,41,22.10
2014,08,03,10,42,22.20
2014,08,03,10,43,22.20
2014,08,03,10,44,22.20
2014,08,03,10,45,22.20
2014,08,03,10,46,22.20
2014,08,03,10,47,22.20
2014,08,03,10,48,22.20
2014,08,03,10,49,22.20
2014,08,03,10,50,22.30
2014,08,03,10,51,22.40
2014,08,03,10,52,22.40
2014,08,03,10,53,22.50
2014,08,03,10,54,22.60
2014,08,03,10,55,22.70
2014,08,03,10,56,22.70
2014,08,03,10,57,22.80
2014,08,03,10,58,22.80
2014,08,03,10,59,22.90
2014,08,03,11,00,23.00
2014,08,03,11,01,23.00
2014,08,03,11,02,23.00
2014,08,03,11,03,22.90
2014,08,03,11,04,22.80
2014,08,03,11,05,22.80
2014,08,03,11,06,22.80
2014,08,03,11,07,22.80
2014,08,03,11,08,22.80
2014,08,03,11,09,22.90
2014,08,03,11,10,23.00
2014,08,03,11,11,23.00
2014,08,03,11,12,23.10
2014,08,03,11,13,23.10
2014,08,03,11,14,23.10
2014,08,03,11,15,23.10
2014,08,03,11,16,23.10
2014,08,03,11,17,23.10
2014,08,03,11,18,23.10
2014,08,03,11,19,23.10
2014,08,03,11,20,23.20
2014,08,03,11,21,23.20
2014,08,03,11,22,23.20
2014,08,03,11,23,23.30
2014,08,03,11,24,23.30
2014,08,03,11,25,23.30
2014,08,03,11,26,23.30
2014,08,03,11,27,23.40
2014,08,03,11,28,23.40
2014,08,03,11,29,23.40
2014,08,03,11,30,23.40
2014,08,03,11,31,23.40
2014,08,03,11,32,23.30
2014,08,03,11,33,23.30
2014,08,03,11,34,23.40
2014,08,03,11,35,23.40
2014,08,03,11,36,23.40
2014,08,03,11,37,23.40
2014,08,03,11,38,23.30
2014,08,03,11,39,23.20
2014,08,03,11,40,23.20
2014,08,03,11,41,23.30
2014,08,03,11,42,23.30
2014,08,03,11,43,23.40
2014,08,03,11,44,23.40
2014,08,03,11,45,23.40
2014,08,03,11,46,23.50
2014,08,03,11,47,23.50
2014,08,03,11,48,23.60
2014,08,03,11,49,23.60
2014,08,03,11,50,23.60
2014,08,03,11,51,23.60
2014,08,03,11,52,23.60
2014,08,03,11,53,23.60
2014,08,03,11,54,23.60
2014,08,03,11,55,23.60
2014,08,03,11,56,23.60
2014,08,03,11,57,23.70
2014,08,03,11,58,23.70
2014,08,03,11,59,23.70
2014,08,03,12,00,23.70
2014,08,03,12,01,23.70
2014,08,03,12,02,23.80
2014,08,03,12,03,23.80
2014,08,03,12,04,23.90
2014,08,03,12,05,23.90
2014,08,03,12,06,23.90
2014,08,03,12,07,24.00
2014,08,03,12,08,24.00
2014,08,03,12,09,23.90
2014,08,03,12,10,23.90
2014,08,03,12,11,23.90
2014,08,03,12,12,23.90
2014,08,03,12,13,24.00
2014,08,03,12,14,24.00
2014,08,03,12,15,24.10
2014,08,03,12,16,24.10
2014,08,03,12,17,24.10
2014,08,03,12,18,24.10
2014,08,03,12,19,24.10
2014,08,03,12,20,24.20
2014,08,03,12,21,24.20
2014,08,03,12,22,24.20
2014,08,03,12,23,24.30
2014,08,03,12,24,24.30
2014,08,03,12,25,24.30
2014,08,03,12,26,24.30
2014,08,03,12,27,24.30
2014,08,03,12,28,24.30
2014,08,03,12,29,24.30
2014,08,03,12,30,24.30
2014,08,03,12,31,24.30
2014,08,03,12,32,24.30
2014,08,03,12,33,24.30
2014,08,03,12,34,24.30
2014,08,03,12,35,24.40
2014,08,03,12,36,24.50
2014,08,03,12,37,24.60
2014,08,03,12,38,24.70
2014,08,03,12,39,24.80
2014,08,03,12,40,24.90
2014,08,03,12,41,25.10
2014,08,03,12,42,25.10
2014,08,03,12,43,25.20
2014,08,03,12,44,25.20
2014,08,03,12,45,25.30
2014,08,03,12,46,25.30
2014,08,03,12,47,25.30
2014,08,03,12,48,25.40
2014,08,03,12,49,25.40
2014,08,03,12,50,25.40
2014,08,03,12,51,25.40
2014,08,03,12,52,25.40
2014,08,03,12,53,25.50
2014,08,03,12,54,25.50
2014,08,03,12,55,25.50
2014,08,03,12,56,25.40
2014,08,03,12,57,25.30
2014,08,03,12,58,25.20
2014,08,03,12,59,25.10
2014,08,03,13,00,25.10
2014,08,03,13,01,25.10
2014,08,03,13,02,25.00
2014,08,03,13,03,25.10
2014,08,03,13,04,25.10
2014,08,03,13,05,25.10
2014,08,03,13,06,25.10
2014,08,03,13,07,25.20
2014,08,03,13,08,25.20
2014,08,03,13,09,25.20
2014,08,03,13,10,25.30
2014,08,03,13,11,25.20
2014,08,03,13,12,25.20
2014,08,03,13,13,25.20
2014,08,03,13,14,25.30
2014,08,03,13,15,25.30
2014,08,03,13,16,25.30
2014,08,03,13,17,25.30
2014,08,03,13,18,25.30
2014,08,03,13,19,25.30
2014,08,03,13,20,25.30
2014,08,03,13,21,25.30
2014,08,03,13,22,25.30
2014,08,03,13,23,25.30
2014,08,03,13,24,25.30
2014,08,03,13,25,25.30
2014,08,03,13,26,25.30
2014,08,03,13,27,25.30
2014,08,03,13,28,25.30
2014,08,03,13,29,25.40
2014,08,03,13,30,25.40
2014,08,03,13,31,25.50
2014,08,03,13,32,25.60
2014,08,03,13,33,25.60
2014,08,03,13,34,25.60
2014,08,03,13,35,25.60
2014,08,03,13,36,25.60
2014,08,03,13,37,25.60
2014,08,03,13,38,25.60
2014,08,03,13,39,25.60
2014,08,03,13,40,25.70
2014,08,03,13,41,25.70
2014,08,03,13,42,25.70
2014,08,03,13,43,25.70
2014,08,03,13,44,25.70
2014,08,03,13,45,25.70
2014,08,03,13,46,25.80
2014,08,03,13,47,25.80
2014,08,03,13,48,25.80
2014,08,03,13,49,25.80
2014,08,03,13,50,25.80
2014,08,03,13,51,25.80
2014,08,03,13,52,25.80
2014,08,03,13,53,25.90
2014,08,03,13,54,26.00
2014,08,03,13,55,26.10
2014,08,03,13,56,26.20
2014,08,03,13,57,26.30
2014,08,03,13,58,26.30
2014,08,03,13,59,26.30
2014,08,03,14,00,26.30
2014,08,03,14,01,26.30
2014,08,03,14,02,26.30
2014,08,03,14,03,26.30
2014,08,03,14,04,26.30
2014,08,03,14,05,26.40
2014,08,03,14,06,26.40
2014,08,03,14,07,26.40
2014,08,03,14,08,26.40
2014,08,03,14,09,26.40
2014,08,03,14,10,26.40
2014,08,03,14,11,26.50
2014,08,03,14,12,26.50
2014,08,03,14,13,26.60
2014,08,03,14,14,26.60
2014,08,03,14,15,26.70
2014,08,03,14,16,26.70
2014,08,03,14,17,26.70
2014,08,03,14,18,26.70
2014,08,03,14,19,26.70
2014,08,03,14,20,26.80
2014,08,03,14,21,26.80
2014,08,03,14,22,26.80
2014,08,03,14,23,26.80
2014,08,03,14,24,26.80
2014,08,03,14,25,26.80
2014,08,03,14,26,26.90
2014,08,03,14,27,27.00
2014,08,03,14,28,27.00
2014,08,03,14,29,27.00
2014,08,03,14,30,27.00
2014,08,03,14,31,26.90
2014,08,03,14,32,27.00
2014,08,03,14,33,27.00
2014,08,03,14,34,27.10
2014,08,03,14,35,27.10
2014,08,03,14,36,27.20
2014,08,03,14,37,27.30
2014,08,03,14,38,27.30
2014,08,03,14,39,27.30
2014,08,03,14,40,27.30
2014,08,03,14,41,27.20
2014,08,03,14,42,27.20
2014,08,03,14,43,27.30
2014,08,03,14,44,27.30
2014,08,03,14,45,27.40
2014,08,03,14,46,27.40
2014,08,03,14,47,27.40
2014,08,03,14,48,27.40
2014,08,03,14,49,27.50
2014,08,03,14,50,27.60
2014,08,03,14,51,27.70
2014,08,03,14,52,27.70
2014,08,03,14,53,27.70
2014,08,03,14,54,27.70
2014,08,03,14,55,27.50
2014,08,03,14,56,27.40
2014,08,03,14,57,27.30
2014,08,03,14,58,27.20
2014,08,03,14,59,27.10
2014,08,03,15,00,27.10
2014,08,03,15,01,27.10
2014,08,03,15,02,27.10
2014,08,03,15,03,27.10
2014,08,03,15,04,27.10
2014,08,03,15,05,27.20
2014,08,03,15,06,27.20
2014,08,03,15,07,27.20
2014,08,03,15,08,27.20
2014,08,03,15,09,27.20
2014,08,03,15,10,27.20
2014,08,03,15,11,27.30
2014,08,03,15,12,27.40
2014,08,03,15,13,27.40
2014,08,03,15,14,27.40
2014,08,03,15,15,27.40
2014,08,03,15,16,27.30
2014,08,03,15,17,27.30
2014,08,03,15,18,27.20
2014,08,03,15,19,27.20
2014,08,03,15,20,27.20
2014,08,03,15,21,27.20
2014,08,03,15,22,27.20
2014,08,03,15,23,27.30
2014,08,03,15,24,27.30
2014,08,03,15,25,27.40
2014,08,03,15,26,27.40
2014,08,03,15,27,27.50
2014,08,03,15,28,27.50
2014,08,03,15,29,27.50
2014,08,03,15,30,27.50
2014,08,03,15,31,27.50
2014,08,03,15,32,27.50
2014,08,03,15,33,27.60
2014,08,03,15,34,27.60
2014,08,03,15,35,27.60
2014,08,03,15,36,27.60
2014,08,03,15,37,27.60
2014,08,03,15,38,27.60
2014,08,03,15,39,27.70
2014,08,03,15,40,27.70
2014,08,03,15,41,27.70
2014,08,03,15,42,27.70
2014,08,03,15,43,27.70
2014,08,03,15,44,27.70
2014,08,03,15,45,27.70
2014,08,03,15,46,27.70
2014,08,03,15,47,27.70
2014,08,03,15,48,27.70
2014,08,03,15,49,27.70
2014,08,03,15,50,27.60
2014,08,03,15,51,27.60
2014,08,03,15,52,27.60
2014,08,03,15,53,27.60
2014,08,03,15,54,27.70
2014,08,03,15,55,27.70
2014,08,03,15,56,27.80
2014,08,03,15,57,27.80
2014,08,03,15,58,27.70
2014,08,03,15,59,27.60
2014,08,03,16,00,27.60
2014,08,03,16,01,27.60
2014,08,03,16,02,27.50
2014,08,03,16,03,27.40
2014,08,03,16,04,27.40
2014,08,03,16,05,27.30
2014,08,03,16,06,27.20
2014,08,03,16,07,27.10
2014,08,03,16,08,27.00
2014,08,03,16,09,27.00
2014,08,03,16,10,26.90
2014,08,03,16,11,26.90
2014,08,03,16,12,26.80
2014,08,03,16,13,26.80
2014,08,03,16,14,26.80
2014,08,03,16,15,26.70
2014,08,03,16,16,26.70
2014,08,03,16,17,26.70
2014,08,03,16,18,26.70
2014,08,03,16,19,26.70
2014,08,03,16,20,26.80
2014,08,03,16,21,26.80
2014,08,03,16,22,26.80
2014,08,03,16,23,26.80
2014,08,03,16,24,26.80
2014,08,03,16,25,26.80
2014,08,03,16,26,26.80
2014,08,03,16,27,26.80
2014,08,03,16,28,26.80
2014,08,03,16,29,26.90
2014,08,03,16,30,27.00
2014,08,03,16,31,27.10
2014,08,03,16,32,27.20
2014,08,03,16,33,27.20
2014,08,03,16,34,27.30
2014,08,03,16,35,27.30
2014,08,03,16,36,27.30
2014,08,03,16,37,27.40
2014,08,03,16,38,27.50
2014,08,03,16,39,27.60
2014,08,03,16,40,27.60
2014,08,03,16,41,27.50
2014,08,03,16,42,27.50
2014,08,03,16,43,27.40
2014,08,03,16,44,27.40
2014,08,03,16,45,27.50
2014,08,03,16,46,27.50
2014,08,03,16,47,27.50
2014,08,03,16,48,27.50
2014,08,03,16,49,27.50
2014,08,03,16,50,27.50
2014,08,03,16,51,27.50
2014,08,03,16,52,27.40
2014,08,03,16,53,27.40
2014,08,03,16,54,27.40
2014,08,03,16,55,27.40
2014,08,03,16,56,27.40
2014,08,03,16,57,27.30
2014,08,03,16,58,27.30
2014,08,03,16,59,27.20
2014,08,03,17,00,27.20
2014,08,03,17,01,27.30
2014,08,03,17,02,27.30
2014,08,03,17,03,27.40
2014,08,03,17,04,27.40
2014,08,03,17,05,27.50
2014,08,03,17,06,27.50
2014,08,03,17,07,27.60
2014,08,03,17,08,27.70
2014,08,03,17,09,27.70
2014,08,03,17,10,27.70
2014,08,03,17,11,27.80
2014,08,03,17,12,27.80
2014,08,03,17,13,27.80
2014,08,03,17,14,27.90
2014,08,03,17,15,27.90
2014,08,03,17,16,28.00
2014,08,03,17,17,28.10
2014,08,03,17,18,28.20
2014,08,03,17,19,28.20